| time (UTC) | temp F | wind direction | speed MPH | gust MPH | rain 1hr in | rain 24hr in | rain mn in | humidity % | barometer mb |
| 20260506012903 | 49 | 0 | 5.0 | 12.0 | 0.04 | 0.17 | 0.14 | 95 | 1006.6 |
| 20260506012347 | 49 | 0 | 4.0 | 11.0 | 0.05 | 0.17 | 0.13 | 95 | 1006.7 |
| 20260506010904 | 49 | 353 | 6.0 | 10.0 | 0.05 | 0.17 | 0.13 | 95 | 1006.8 |
| 20260506010342 | 49 | 0 | 5.0 | 10.0 | 0.05 | 0.13 | 0.13 | 95 | 1006.8 |
| 20260506004904 | 49 | 0 | 6.0 | 10.0 | 0.05 | 0.13 | 0.12 | 95 | 1006.8 |
| 20260506003903 | 49 | 0 | 4.0 | 9.0 | 0.05 | 0.13 | 0.11 | 95 | 1007.0 |
| 20260506002905 | 49 | 4 | 5.0 | 10.0 | 0.05 | 0.13 | 0.09 | 95 | 1007.0 |
| 20260506001903 | 49 | 302 | 4.0 | 10.0 | 0.05 | 0.13 | 0.09 | 95 | 1007.2 |
| 20260506000903 | 50 | 0 | 7.0 | 13.0 | 0.05 | 0.13 | 0.09 | 95 | 1007.2 |
| 20260505235905 | 50 | 0 | 4.0 | 11.0 | 0.05 | 0.08 | 0.08 | 95 | 1007.3 |
| 20260505234905 | 50 | 7 | 4.0 | 10.0 | 0.04 | 0.08 | 0.07 | 95 | 1007.3 |
| 20260505233903 | 50 | 321 | 5.0 | 10.0 | 0.04 | 0.08 | 0.06 | 95 | 1007.4 |
| 20260505232904 | 50 | 331 | 4.0 | 11.0 | 0.03 | 0.08 | 0.06 | 94 | 1007.4 |
| 20260505231906 | 50 | 343 | 5.0 | 9.0 | 0.03 | 0.08 | 0.05 | 95 | 1007.5 |
| 20260505230908 | 50 | 0 | 4.0 | 13.0 | 0.03 | 0.08 | 0.04 | 95 | 1007.5 |
| 20260505225904 | 50 | 358 | 7.0 | 10.0 | 0.03 | 0.05 | 0.03 | 95 | 1007.5 |
| 20260505224904 | 50 | 323 | 5.0 | 11.0 | 0.04 | 0.05 | 0.03 | 95 | 1007.7 |
| 20260505223904 | 50 | 319 | 5.0 | 9.0 | 0.03 | 0.05 | 0.02 | 94 | 1007.7 |
| 20260505222903 | 50 | 0 | 7.0 | 12.0 | 0.04 | 0.05 | 0.02 | 94 | 1007.7 |
| 20260505221905 | 51 | 351 | 5.0 | 11.0 | 0.03 | 0.05 | 0.02 | 94 | 1007.8 |
| 20260505220903 | 51 | 0 | 6.0 | 11.0 | 0.03 | 0.05 | 0.01 | 94 | 1007.8 |
| 20260505215903 | 51 | 0 | 7.0 | 17.0 | 0.02 | 0.02 | 0.05 | 94 | 1007.7 |
| 20260505214904 | 51 | 20 | 4.0 | 11.0 | 0.02 | 0.02 | 0.04 | 94 | 1007.8 |
| 20260505213903 | 51 | 0 | 7.0 | 14.0 | 0.02 | 0.02 | 0.03 | 94 | 1007.9 |
| 20260505212902 | 51 | 0 | 6.0 | 10.0 | 0.02 | 0.02 | 0.03 | 94 | 1007.9 |
| 20260505212337 | 51 | 27 | 5.0 | 12.0 | 0.02 | 0.02 | 0.03 | 94 | 1007.9 |
| 20260505210902 | 51 | 353 | 5.0 | 10.0 | 0.02 | 0.02 | 0.02 | 94 | 1008.0 |
| 20260505205903 | 51 | 34 | 6.0 | 15.0 | 0.02 | 0.01 | 0.02 | 94 | 1008.1 |
| 20260505204902 | 51 | 355 | 5.0 | 12.0 | 0.01 | 0.01 | 0.02 | 94 | 1008.2 |
| 20260505203901 | 51 | 14 | 7.0 | 12.0 | 0.01 | 0.01 | 0.02 | 94 | 1008.1 |
| 20260505202902 | 52 | 16 | 6.0 | 12.0 | 0.02 | 0.01 | 0.02 | 94 | 1008.1 |
| 20260505201901 | 52 | 0 | 8.0 | 13.0 | 0.02 | 0.01 | 0.02 | 94 | 1008.1 |
| 20260505200902 | 51 | 28 | 7.0 | 14.0 | 0.01 | 0.01 | 0.01 | 93 | 1008.0 |
| 20260505200336 | 51 | 31 | 7.0 | 14.0 | 0.01 | 0.00 | 0.01 | 93 | 1008.0 |
| 20260505195339 | 51 | 34 | 7.0 | 12.0 | 0.01 | 0.00 | 0.01 | 93 | 1008.0 |
| 20260505193900 | 51 | 25 | 8.0 | 15.0 | 0.01 | 0.01 | 0.00 | 93 | 1007.9 |
| 20260505192901 | 51 | 17 | 8.0 | 15.0 | 0.00 | 0.01 | 0.00 | 93 | 1008.0 |
| 20260505192336 | 52 | 10 | 8.0 | 18.0 | 0.00 | 0.01 | 0.00 | 92 | 1007.9 |
| 20260505191336 | 52 | 0 | 9.0 | 13.0 | 0.00 | 0.01 | 0.00 | 92 | 1007.9 |
| 20260505185859 | 52 | 10 | 6.0 | 15.0 | 0.00 | 0.01 | 0.00 | 92 | 1007.9 |
| 20260505184859 | 52 | 18 | 5.0 | 10.0 | 0.00 | 0.01 | 0.00 | 92 | 1007.8 |
| 20260505183859 | 52 | 20 | 6.0 | 12.0 | 0.00 | 0.01 | 0.00 | 91 | 1007.8 |
| 20260505182900 | 52 | 17 | 4.0 | 13.0 | 0.00 | 0.01 | 0.00 | 90 | 1007.8 |
| 20260505181900 | 52 | 28 | 9.0 | 14.0 | 0.00 | 0.01 | 0.00 | 90 | 1007.8 |
| 20260505180858 | 52 | 14 | 7.0 | 12.0 | 0.00 | 0.01 | 0.00 | 89 | 1007.8 |
| 20260505175858 | 53 | 0 | 5.0 | 13.0 | 0.00 | 0.02 | 0.00 | 89 | 1008.0 |
| 20260505174859 | 52 | 42 | 6.0 | 13.0 | 0.00 | 0.02 | 0.00 | 89 | 1007.9 |
| 20260505173859 | 52 | 51 | 7.0 | 16.0 | 0.00 | 0.02 | 0.00 | 89 | 1008.1 |
| 20260505172900 | 53 | 21 | 5.0 | 14.0 | 0.00 | 0.04 | 0.00 | 90 | 1008.0 |
| 20260505172348 | 53 | 13 | 10.0 | 13.0 | 0.00 | 0.06 | 0.00 | 90 | 1007.9 |
| 20260505171337 | 53 | 28 | 8.0 | 14.0 | 0.00 | 0.06 | 0.00 | 90 | 1007.9 |
| 20260505165858 | 53 | 0 | 8.0 | 12.0 | 0.00 | 0.06 | 0.00 | 89 | 1008.0 |
| 20260505165336 | 53 | 8 | 8.0 | 13.0 | 0.00 | 0.06 | 0.00 | 90 | 1008.1 |
| 20260505163856 | 53 | 6 | 8.0 | 13.0 | 0.00 | 0.06 | 0.00 | 90 | 1008.1 |
| 20260505162857 | 53 | 0 | 9.0 | 14.0 | 0.00 | 0.07 | 0.00 | 90 | 1008.0 |
| 20260505161856 | 53 | 0 | 6.0 | 15.0 | 0.00 | 0.07 | 0.00 | 90 | 1007.9 |
| 20260505160855 | 53 | 30 | 9.0 | 14.0 | 0.00 | 0.07 | 0.00 | 90 | 1008.0 |
| 20260505153337 | 53 | 0 | 7.0 | 13.0 | 0.00 | 0.07 | 0.00 | 89 | 1008.3 |
| 20260505151855 | 53 | 39 | 7.0 | 13.0 | 0.00 | 0.07 | 0.00 | 89 | 1008.4 |
| 20260505150857 | 53 | 336 | 7.0 | 13.0 | 0.00 | 0.07 | 0.00 | 89 | 1008.4 |
| 20260505124853 | 53 | 24 | 6.0 | 12.0 | 0.00 | 0.07 | 0.00 | 89 | 1009.1 |
| 20260505123850 | 53 | 10 | 7.0 | 13.0 | 0.00 | 0.07 | 0.00 | 89 | 1009.1 |
| 20260505122851 | 53 | 6 | 9.0 | 13.0 | 0.00 | 0.07 | 0.00 | 88 | 1009.2 |
| 20260505121850 | 53 | 21 | 8.0 | 14.0 | 0.00 | 0.07 | 0.00 | 88 | 1009.2 |
| 20260505120850 | 53 | 35 | 8.0 | 14.0 | 0.00 | 0.07 | 0.00 | 88 | 1009.2 |
| 20260505115853 | 54 | 0 | 7.0 | 13.0 | 0.00 | 0.07 | 0.00 | 88 | 1009.4 |
| 20260505114851 | 54 | 34 | 6.0 | 16.0 | 0.00 | 0.07 | 0.00 | 88 | 1009.4 |
| 20260505113849 | 55 | 37 | 7.0 | 14.0 | 0.00 | 0.07 | 0.00 | 88 | 1009.5 |
| 20260505112850 | 54 | 20 | 9.0 | 15.0 | 0.00 | 0.07 | 0.00 | 89 | 1009.4 |
| 20260505111849 | 54 | 23 | 5.0 | 14.0 | 0.00 | 0.07 | 0.00 | 89 | 1009.5 |
| 20260505110851 | 54 | 0 | 6.0 | 12.0 | 0.00 | 0.07 | 0.00 | 89 | 1009.5 |
| 20260505101848 | 53 | 0 | 6.0 | 15.0 | 0.00 | 0.07 | 0.00 | 90 | 1009.7 |
| 20260505100848 | 53 | 23 | 5.0 | 14.0 | 0.00 | 0.07 | 0.00 | 91 | 1009.7 |
| 20260505095845 | 53 | 358 | 8.0 | 15.0 | 0.00 | 0.07 | 0.00 | 91 | 1009.7 |
| 20260505094849 | 53 | 0 | 9.0 | 15.0 | 0.00 | 0.07 | 0.00 | 92 | 1009.7 |
| 20260505093846 | 53 | 21 | 7.0 | 12.0 | 0.00 | 0.07 | 0.00 | 93 | 1009.7 |
| 20260505092847 | 53 | 0 | 7.0 | 12.0 | 0.00 | 0.07 | 0.00 | 93 | 1009.8 |
| 20260505091846 | 53 | 28 | 5.0 | 12.0 | 0.00 | 0.07 | 0.00 | 93 | 1009.8 |
| 20260505090846 | 53 | 0 | 6.0 | 12.0 | 0.00 | 0.07 | 0.00 | 94 | 1009.9 |
| 20260505085845 | 53 | 31 | 6.0 | 12.0 | 0.00 | 0.07 | 0.00 | 94 | 1009.7 |
| 20260505084845 | 53 | 31 | 7.0 | 14.0 | 0.00 | 0.07 | 0.00 | 94 | 1009.8 |
| 20260505083848 | 53 | 329 | 5.0 | 11.0 | 0.00 | 0.07 | 0.00 | 94 | 1009.8 |
| 20260505082847 | 53 | 347 | 6.0 | 10.0 | 0.00 | 0.07 | 0.00 | 94 | 1009.7 |
| 20260505081847 | 53 | 18 | 3.0 | 12.0 | 0.00 | 0.07 | 0.00 | 94 | 1009.7 |
| 20260505080850 | 53 | 0 | 8.0 | 12.0 | 0.00 | 0.07 | 0.00 | 95 | 1009.6 |
| 20260505075848 | 53 | 0 | 6.0 | 11.0 | 0.00 | 0.07 | 0.00 | 95 | 1009.7 |
| 20260505074848 | 54 | 357 | 4.0 | 11.0 | 0.00 | 0.07 | 0.00 | 95 | 1009.7 |
| 20260505073847 | 54 | 28 | 8.0 | 12.0 | 0.00 | 0.07 | 0.00 | 95 | 1009.7 |
| 20260505073326 | 54 | 0 | 6.0 | 10.0 | 0.00 | 0.07 | 0.00 | 95 | 1009.7 |
| 20260505071845 | 54 | 11 | 4.0 | 10.0 | 0.00 | 0.07 | 0.00 | 95 | 1009.6 |
| 20260505070846 | 54 | 27 | 6.0 | 12.0 | 0.00 | 0.07 | 0.00 | 95 | 1009.5 |
| 20260505065848 | 54 | 0 | 7.0 | 12.0 | 0.00 | 0.07 | 0.00 | 95 | 1009.6 |
| 20260505064845 | 55 | 17 | 5.0 | 11.0 | 0.00 | 0.07 | 0.00 | 96 | 1009.6 |
| 20260505063844 | 54 | 18 | 6.0 | 11.0 | 0.00 | 0.07 | 0.00 | 96 | 1009.7 |
| 20260505062844 | 54 | 13 | 7.0 | 10.0 | 0.00 | 0.07 | 0.00 | 96 | 1009.9 |
| 20260505062327 | 55 | 18 | 5.0 | 10.0 | 0.00 | 0.07 | 0.00 | 96 | 1009.8 |
| 20260505060844 | 55 | 32 | 6.0 | 11.0 | 0.00 | 0.07 | 0.00 | 96 | 1009.9 |
| 20260505055851 | 55 | 27 | 6.0 | 11.0 | 0.00 | 0.07 | 0.00 | 96 | 1009.8 |
| 20260505054842 | 56 | 344 | 3.0 | 6.0 | 0.00 | 0.07 | 0.00 | 96 | 1009.7 |
| 20260505053842 | 56 | 51 | 2.0 | 3.0 | 0.00 | 0.07 | 0.00 | 96 | 1009.7 |
| 20260505052843 | 56 | 45 | 2.0 | 4.0 | 0.00 | 0.07 | 0.00 | 96 | 1009.8 |
| 20260505052326 | 56 | 34 | 2.0 | 4.0 | 0.00 | 0.07 | 0.00 | 96 | 1009.7 |
| 20260505051319 | 56 | 56 | 0.0 | 2.0 | 0.00 | 0.07 | 0.00 | 96 | 1009.5 |
| 20260505050321 | 56 | 56 | 2.0 | 3.0 | 0.00 | 0.07 | 0.00 | 96 | 1009.5 |
| 20260505040834 | 56 | 69 | 0.0 | 0.0 | 0.00 | 0.07 | 0.00 | 96 | 1009.8 |
| 20260505035831 | 56 | 69 | 0.0 | 1.0 | 0.00 | 0.07 | 0.00 | 96 | 1009.7 |
| 20260505034835 | 56 | 69 | 1.0 | 3.0 | 0.00 | 0.07 | 0.00 | 96 | 1009.6 |
| 20260505033832 | 56 | 137 | 0.0 | 2.0 | 0.00 | 0.07 | 0.00 | 96 | 1009.7 |
| 20260505032833 | 56 | 137 | 1.0 | 3.0 | 0.00 | 0.07 | 0.00 | 96 | 1009.7 |
| 20260505032326 | 56 | 137 | 2.0 | 3.0 | 0.00 | 0.07 | 0.00 | 96 | 1009.8 |
| 20260505030833 | 56 | 138 | 1.0 | 2.0 | 0.00 | 0.07 | 0.00 | 96 | 1009.8 |
| 20260505030308 | 56 | 137 | 0.0 | 2.0 | 0.00 | 0.07 | 0.00 | 96 | 1009.9 |
| 20260505024832 | 56 | 137 | 2.0 | 3.0 | 0.00 | 0.07 | 0.00 | 96 | 1009.9 |
| 20260505023832 | 56 | 137 | 2.0 | 2.0 | 0.00 | 0.07 | 0.00 | 96 | 1010.0 |
| 20260505022832 | 56 | 137 | 2.0 | 3.0 | 0.00 | 0.07 | 0.00 | 96 | 1010.1 |
| 20260505022316 | 56 | 137 | 1.0 | 2.0 | 0.00 | 0.07 | 0.00 | 96 | 1010.0 |
| 20260505020837 | 56 | 137 | 1.0 | 3.0 | 0.00 | 0.07 | 0.00 | 96 | 1010.1 |
| 20260505020311 | 56 | 137 | 1.0 | 3.0 | 0.00 | 0.07 | 0.00 | 96 | 1010.1 |
| 20260505014848 | 56 | 137 | 2.0 | 3.0 | 0.00 | 0.07 | 0.00 | 96 | 1010.1 |